Starlink 11144

operational
NORAD ID: 59955 Int'l Des: 2024-107 Owner: SPXS Country: US Constellation: starlink
LEOCIRCULAR

Über Starlink 11144

Beschreibung wird geladen...

Live-Position

3D-Globus wird geladen...

Nächste Überflüge

Höhenverlauf

Altitude vs Time

uPlot chart will show altitude changes over time

Zweizeiliger Elementsatz

1 59955U 24107L 25308.92955993 -.00001582 00000-0 -81974-5 0 9998
2 59955 53.1605 146.0953 0001593 90.8865 269.2335 15.69698033 82614
Epoch: 4. Nov. 2025 • Age: 10 hours

Aktueller Status

Höhe 361.3 km
Geschwindigkeit 7.69 km/s
Subsatellitenpunkt -3.64°S, 158.05°E
Startdatum 5. Juni 2024
Alter 1.4 years
Typ internet

Technische Details

Klassifizierung Payload
Masse 960.00 kg
Trockenmasse 910.00 kg
Gesamtmasse 960.00 kg
Länge 0.30 m
Durchmesser 4.10 m
Spannweite 29.00 m
Form Box + pan
Hersteller SPXS
Bus-Typ Starlink V2MD
Phasenstatus In Orbit
Besitzer/Staat SPXS/US

Große Konstellationen

Loading constellations...